Regional Weather Roundup
Issued by NWS

Home | Current Version | Previous Version | Text Only | Print | Product List | Glossary On
Versions: 1 2 3 4 5 6 7 8 9 10 11 12 13 14 15 16 17 18 19 20 21 22 23 24 25 26 27 28 29 30 31 32 33 34 35 36 37 38 39 40 41 42 43 44 45 46 47 48 49 50
000
ASUS43 KDTX 222210
RWRMI
MICHIGAN HOURLY REGIONAL WEATHER ROUNDUP
NATIONAL WEATHER SERVICE DETROIT/PONTIAC MI
600 PM EDT MON SEP 22 2014

NOTE: "FAIR" INDICATES FEW OR NO CLOUDS BELOW 12,000 FEET WITH NO
SIGNIFICANT WEATHER AND/OR OBSTRUCTION TO VISIBILITY.

MIZ047>049-052>055-059>063-066>070-074>076-081>083-222300-
SOUTHEAST LOWER MICHIGAN

CITY           SKY/WX    TMP DP  RH WIND       PRES   REMARKS
ADRIAN         SUNNY     63  41  44 N6        30.20F
ALMA           MOSUNNY   62  44  52 W8        30.19S
ANN ARBOR      SUNNY     62  40  44 NW8       30.19S
BAD AXE        SUNNY     59  46  62 W9        30.17F
CARO           PTSUNNY   59  46  62 W5        30.18R
DETROIT CITY   SUNNY     63  39  41 W5        30.18F
DETROIT        MOSUNNY   62  42  47 W8        30.19F
FLINT          SUNNY     63  43  48 NW12      30.19R
GROSSE ILE     SUNNY     63  41  45 NW8       30.17F
HILLSDALE      SUNNY     62  42  47 NW7       30.21S
HOWELL         SUNNY     60  43  54 NW7       30.19S

CITY           SKY/WX    TMP DP  RH WIND       PRES   REMARKS
JACKSON        SUNNY     61  43  51 W8        30.20S
LAMBERTVILLE   SUNNY     63  41  45 W6        30.20S
LANSING        SUNNY     62  42  47 W8        30.20F
LAPEER         FAIR      59  42  53 MISG      30.19R
MASON          SUNNY     60  44  55 NW7       30.19F
MONROE         SUNNY     63  43  48 N8        30.18S
MT. CLEMENS    MOSUNNY   60  39  45 NW9       30.16S
PONTIAC        MOSUNNY   60  41  49 W10       30.18S
PORT HOPE        N/A     59  43  55 W5        30.15S
PORT HURON     SUNNY     59  43  55 W5        30.19R
TRI CITIES     CLOUDY    63  46  54 W6        30.19R
TROY           SUNNY     63  37  39 W8        30.20S
SAGINAW HB     CLOUDY    63  43  48 W10       30.18R
$$
MIZ043>046-050>051-056>058-064>065-071>073-077>080-222300-
SOUTHWEST LOWER MICHIGAN

CITY           SKY/WX    TMP DP  RH WIND       PRES   REMARKS
BATTLE CREEK   SUNNY     61  45  55 NW12      30.22S
BENTON HARBOR  SUNNY     57  46  66 W7        30.24F
BIG RAPIDS     SUNNY     61  47  59 NW8G16    30.19R
COLDWATER      SUNNY     64  44  47 NW6       30.21S
FREMONT        FAIR      60  44  54 W9        30.20F
HOLLAND        SUNNY     61  47  59 W9        30.24F
GRAND RAPIDS   MOSUNNY   62  47  57 W10       30.22S
IONIA          CLOUDY    61  46  57 W6        30.19F
KALAMAZOO      SUNNY     61  45  55 NW10      30.23S
LUDINGTON      SUNNY     59  52  76 SW12      30.20F
MARSHALL       SUNNY     61  43  52 W5        30.21S
MOUNT PLEASANT PTSUNNY   61  45  54 W5        30.18R
MUSKEGON       MOSUNNY   61  47  59 W7        30.22F
SOUTH HAVEN    SUNNY     60  47  61 NW6       30.24F
$$
MIZ016>042-222300-
NORTHERN LOWER MICHIGAN

CITY           SKY/WX    TMP DP  RH WIND       PRES   REMARKS
ALPENA         MOSUNNY   61  45  55 W8G17     30.13R
BEAVER ISLAND  SUNNY     61  53  75 SW12      30.13S
BELLAIRE       SUNNY     63  44  51 W7        30.16S
CADILLAC       MOSUNNY   61  46  58 W10       30.17S
CHARLEVOIX     SUNNY     61  50  67 SW10      30.17S
FRANKFORT      SUNNY     61  51  71 S6        30.18S
GAYLORD        SUNNY     59  44  57 W14G20    30.15S
GRAYLING       MOSUNNY   62  43  49 NW15      30.17S
HARBOR SPRINGS SUNNY     59  51  75 W10G18    30.14S
HOUGHTON LAKE  PTSUNNY   62  44  51 W14G20    30.17R
MANISTEE       SUNNY     61  46  59 W8        30.19S
OSCODA         CLOUDY    61  47  59 W5        30.14R
PELLSTON       SUNNY     60  50  69 SW13G20   30.13S
ROGERS CITY    MOSUNNY   61  49  66 SW9       30.12F
TRAVERSE CITY  MOSUNNY   63  44  50 W8        30.15S
$$
MIZ007>008-015-222300-
EASTERN UPPER MICHIGAN

CITY           SKY/WX    TMP DP  RH WIND       PRES   REMARKS
KINROSS        PTSUNNY   61  48  63 W8        30.09S
MACKINAC ISLAN MOSUNNY   58  52  79 SW14G22   30.11S
NEWBERRY       SUNNY     64  46  52 W14G20    30.09S
S. S. MARIE    SUNNY     59  47  64 W12       30.07F
MUNISING         N/A     66  46  48 CALM      30.08F
$$
MIZ004>006-011>014-085-222300-
CENTRAL UPPER MICHIGAN

CITY           SKY/WX    TMP DP  RH WIND       PRES   REMARKS
MANISTIQUE     SUNNY     60  53  77 S12       30.10F
ESCANABA       SUNNY     70  46  43 W9        30.10S
MENOMINEE      SUNNY     68  48  49 W8        30.11F
SAWYER-GWINN   SUNNY     66  45  45 W9        30.09F
$$
MIZ001>003-009>011-084-222300-
WESTERN UPPER MICHIGAN

CITY           SKY/WX    TMP DP  RH WIND       PRES   REMARKS
IRON MOUNTAIN  SUNNY     67  46  47 W7        30.11F
HOUGHTON       SUNNY     64  48  56 W16G30    30.06F
COPPER HARBOR    N/A     66  49  54 W9G21     30.03S
IRONWOOD       SUNNY     66  52  59 W14       30.10S
$$

ABBREVIATIONS USED IN REMARKS
   TC - TEMPERATURE IN CELSIUS
  WCI - WIND CHILL INDEX
   HX - HEAT INDEX
  VSB - VISIBILITY



USA.gov is the U.S. government's official web portal to all federal, state and local government web resources and services.